Weather History for Akron Canton, OH

Change the Weather History Date:

Saturday, January 19, 2013

  Actual Average Record
Temperature  
Mean Temperature 42 °F 26 °F  
Max Temperature 51 °F 33 °F 68 °F (1907)
Min Temperature 33 °F 19 °F -25 °F (1994)
Degree Days  
Heating Degree Days 23 39  
Month to date heating degree days 614 739  
Since 1 July heating degree days 2760 3069  
Cooling Degree Days 0 0  
Month to date cooling degree days 0 0  
Year to date cooling degree days 0 0  
Moisture  
Dew Point 22 °F    
Average Humidity 44    
Maximum Humidity 56    
Minimum Humidity 32    
Precipitation  
Precipitation 0.00 in 0.08 in 0.53 in (1986)
Month to date precipitation 0.64 1.63  
Year to date precipitation 0.64 1.63  
Snow  
Snow 0.00 in 0.40 in - ()
Month to date snowfall 0.4 7.6  
Since 1 July snowfall 14.7 21.2  
Snow Depth 0.00 in    
Sea Level Pressure  
Sea Level Pressure 30.00 in    
Wind  
Wind Speed 20 mph (SW)    
Max Wind Speed 29 mph    
Max Gust Speed 39 mph    
Visibility 10 miles    
Events      
T = Trace of Precipitation, MM = Missing Value Source: NWS Daily Summary

Daily Weather History Graph

Daily Weather History Graph

Search for Another Location

Airport:

Trip Planner

Search our weather history database for the weather conditions in past years. The results will help you decide how hot, cold, wet, or windy it might be!

Date:

Astronomy

Jan. 19, 2013 Rise Set
Actual Time 7:46 AM EST 5:27 PM EST
Civil Twilight 7:16 AM EST 5:57 PM EST
Nautical Twilight 6:42 AM EST 6:31 PM EST
Astronomical Twilight 6:09 AM EST 7:03 PM EST
Moon 11:53 AM EST (1/19) 1:18 AM EST (1/19)
Length of Visible Light 10h 41m
Length of Day
9h 41m
First Quarter, 57% of the Moon is Illuminated
Jan 19
First Quarter
Jan 26
Full
Feb 3
Last Quarter
Feb 10
New
Feb 17
First Quarter

Hourly Weather History & Observations

Time (EST) Temp. Windchill Dew Point Humidity Pressure Visibility Wind Dir Wind Speed Gust Speed Precip Events Conditions
12:51 AM 34.0 °F 21.5 °F 18.0 °F 52% 30.16 in 10.0 mi SSW 24.2 mph 33.4 mph N/A   Partly Cloudy
1:51 AM 33.8 °F 22.8 °F 19.4 °F 56% 30.12 in 10.0 mi SSW 18.4 mph 26.5 mph N/A   Partly Cloudy
2:51 AM 34.0 °F 23.8 °F 19.0 °F 54% 30.16 in 10.0 mi SSW 16.1 mph 25.3 mph N/A   Partly Cloudy
3:51 AM 34.0 °F 23.8 °F 19.0 °F 54% 30.15 in 10.0 mi SW 16.1 mph - N/A   Clear
4:51 AM 34.0 °F 23.0 °F 19.9 °F 56% 30.13 in 10.0 mi SW 18.4 mph 23.0 mph N/A   Clear
5:51 AM 34.0 °F 23.8 °F 19.9 °F 56% 30.12 in 10.0 mi SW 16.1 mph - N/A   Clear
6:51 AM 35.1 °F 25.2 °F 19.9 °F 54% 30.12 in 10.0 mi SW 16.1 mph 24.2 mph N/A   Clear
7:51 AM 35.1 °F 24.8 °F 21.0 °F 57% 30.12 in 10.0 mi SW 17.3 mph - N/A   Partly Cloudy
8:51 AM 37.9 °F 28.9 °F 21.0 °F 51% 30.12 in 10.0 mi SW 16.1 mph 25.3 mph N/A   Partly Cloudy
9:51 AM 39.9 °F 29.0 °F 21.0 °F 47% 30.12 in 10.0 mi SW 26.5 mph 32.2 mph N/A   Partly Cloudy
10:51 AM 44.1 °F 35.0 °F 23.0 °F 43% 30.10 in 10.0 mi SW 24.2 mph 29.9 mph N/A   Scattered Clouds
11:51 AM 46.0 °F 39.0 °F 24.1 °F 42% 30.06 in 10.0 mi SW 17.3 mph 29.9 mph N/A   Partly Cloudy
12:51 PM 48.9 °F - 25.0 °F 39% 30.01 in 10.0 mi WSW 19.6 mph 27.6 mph N/A   Partly Cloudy
1:51 PM 50.0 °F - 24.1 °F 36% 29.97 in 10.0 mi SSW 20.7 mph 31.1 mph N/A   Partly Cloudy
2:51 PM 51.1 °F - 24.1 °F 35% 29.95 in 10.0 mi SW 21.9 mph 33.4 mph N/A   Partly Cloudy
3:51 PM 51.1 °F - 23.0 °F 33% 29.92 in 10.0 mi SW 17.3 mph 32.2 mph N/A   Partly Cloudy
4:51 PM 50.0 °F - 21.0 °F 32% 29.88 in 10.0 mi SSW 24.2 mph 33.4 mph N/A   Partly Cloudy
5:51 PM 48.0 °F - 21.0 °F 34% 29.85 in 10.0 mi SSW 18.4 mph - N/A   Partly Cloudy
6:51 PM 48.9 °F - 21.0 °F 33% 29.83 in 10.0 mi SSW 21.9 mph 35.7 mph N/A   Overcast
7:51 PM 48.0 °F - 23.0 °F 37% 29.85 in 10.0 mi SW 17.3 mph 25.3 mph N/A   Overcast
8:51 PM 46.9 °F - 24.1 °F 41% 29.83 in 10.0 mi SW 24.2 mph 33.4 mph N/A   Mostly Cloudy
9:51 PM 46.9 °F - 24.1 °F 41% 29.81 in 10.0 mi SW 20.7 mph 29.9 mph N/A   Partly Cloudy
10:51 PM 46.0 °F 38.5 °F 25.0 °F 44% 29.79 in 10.0 mi SW 19.6 mph 31.1 mph N/A   Partly Cloudy
11:51 PM 46.0 °F 38.3 °F 27.0 °F 47% 29.77 in 10.0 mi SW 20.7 mph 31.1 mph N/A   Mostly Cloudy